Regional Weather Roundup
Issued by NWS

Home | Current Version | Previous Version | Text Only | Print | Product List | Glossary On
Versions: 1 2 3 4 5 6 7 8 9 10 11 12 13 14 15 16 17 18 19 20 21 22 23 24 25 26 27 28 29 30 31 32 33 34 35 36 37 38 39 40 41 42 43 44 45 46 47 48 49 50
000
ASUS45 KPSR 042310
RWRAZ

ARIZONA HOURLY REGIONAL WEATHER ROUNDUP
NATIONAL WEATHER SERVICE PHOENIX AZ
400 PM MST WED MAY 04 2016

NOTE: FAIR INDICATES FEW OR NO CLOUDS BELOW 12,000 FEET WITH NO
SIGNIFICANT WEATHER AND/OR OBSTRUCTIONS TO VISIBILITY.

AZZ001>003-036-050000-
NORTHWEST ARIZONA

CITY           SKY/WX    TMP DP  RH WIND       PRES   REMARKS
BULLHEAD CITY  SUNNY     99  23   6 SW15G22   29.73F
KINGMAN        SUNNY     89  23   9 S16       29.89F
$$

AZZ004>008-015-016-018-050000-
NORTH CENTRAL ARIZONA

CITY           SKY/WX    TMP DP  RH WIND       PRES   REMARKS
GRAND CANYON   MOSUNNY   75  21  13 SW13G22   30.14F
WILLIAMS       SUNNY     73  21  14 SE15G21   30.21F
PRESCOTT       SUNNY     80  20  10 S8        30.03F
FLAGSTAFF      SUNNY     70  24  17 S13G22    30.17F
PAYSON         SUNNY     81  23  12 S9G17     30.08F
PAGE           SUNNY     85  23  10 SE16G23   29.99F
$$

AZZ009>014-017-050000-
NORTHEAST ARIZONA

CITY           SKY/WX    TMP DP  RH WIND       PRES   REMARKS
WINSLOW        SUNNY     83  24  11 S7G21     30.05F
SAINT JOHNS    SUNNY     78  22  12 NW5       30.09F
WINDOW ROCK    SUNNY     75  27  17 VRB6      30.20F
SHOW LOW       SUNNY     73  19  13 SW10G22   30.17F
$$

AZZ023-050000-
GREATER PHOENIX AREA

CITY           SKY/WX    TMP DP  RH WIND       PRES   REMARKS
PHOENIX        MOSUNNY  101  24   6 S16       29.73F
BUCKEYE        SUNNY    100  30   8 S12G18    29.76F
GLENDALE       MOSUNNY   99  19   6 SE7G20    29.76F
LUKE AFB       SUNNY    101  23   6 SW7       29.74F
DEER VALLEY    SUNNY     99  25   7 S13G29    29.77F
SCOTTSDALE     SUNNY    100  14   4 S6        29.78F
MESA-GATEWAY   SUNNY    100  25   7 S15       29.78F
CHANDLER       MOSUNNY  100  19   5 SE7       29.75F
$$

AZZ027-028-050000-
SOUTHWEST MARICOPA COUNTY AND PINAL COUNTY

CITY           SKY/WX    TMP DP  RH WIND       PRES   REMARKS
CASA GRANDE    SUNNY    100  34  10 S3        29.78F
GILA BEND      SUNNY    102  23   6 S14G25    29.73F
$$

AZZ503-504-507>509-050000-
SOUTHEAST ARIZONA

CITY           SKY/WX    TMP DP  RH WIND       PRES   REMARKS
TUCSON         SUNNY     98  20   6 VRB3      29.85F
DAVIS-MONTHAN  MOSUNNY   97  24   7 S13G26    29.84F
RYAN FIELD     SUNNY     99  16   5 S15G21    29.83F
NOGALES        SUNNY     90  18   7 W7G26     29.94F
SIERRA VISTA   MOSUNNY   88  19   8 SE10G18   30.01F
DOUGLAS        SUNNY     88  25  10 CALM      29.99F
SAFFORD        SUNNY     92  26   9 E15       29.94F
$$

AZZ020-021-025-026-031-050000-
SOUTHWEST ARIZONA

CITY           SKY/WX    TMP DP  RH WIND       PRES   REMARKS
YUMA           MOSUNNY   98  34  10 S18       29.72F
$$

CAZ031-033-041-043-047-048-061-050000-
SOUTHERN CALIFORNIA

CITY           SKY/WX    TMP DP  RH WIND       PRES   REMARKS
DOWNTOWN L.A.  MOSUNNY   66  54  65 VRB5      29.90F
L.A. AIRPORT   MOSUNNY   64  53  67 W12       29.91F
SAN DIEGO      PTSUNNY   64  53  67 SW10      29.95R
BURBANK        SUNNY     68  52  56 S8        29.89F
ONTARIO        MOSUNNY   75  52  44 SW21G29   29.86F
RIVERSIDE      SUNNY     75  53  46 W17G26    29.85F
PALM SPRINGS   MOSUNNY   97  34  11 E9G18     29.72F
EL CENTRO NAS  MOSUNNY   95  29   9 SE8       29.70F
IMPERIAL       SUNNY    100  30   8 SE17      29.68F
BLYTHE         SUNNY    100  29   8 S17G28    29.71F
NEEDLES        SUNNY    101  26   7 SW17G24   29.72F
$$

NVZ020-UTZ003-050000-
SOUTHERN NEVADA-UTAH

CITY           SKY/WX    TMP DP  RH WIND       PRES   REMARKS
LAS VEGAS      MOSUNNY   91  25   9 SE14G21   29.77F
SALT LAKE CITY PTSUNNY   82  29  14 S15G21    29.98F
$$

NMZ009-TXZ055-050000-
NEW MEXICO-WEST TEXAS

CITY           SKY/WX    TMP DP  RH WIND       PRES   REMARKS
ALBUQUERQUE    MOSUNNY   76  19  11 SW12      30.18F
EL PASO        MOSUNNY   84  22  10 MISG      30.08F
$$


........................KEY........................
SKY/WX - SKY CONDITION/WEATHER
TMP    - TEMPERATURE IN FAHRENHEIT
DP     - DEW POINT IN FAHRENHEIT
RH     - RELATIVE HUMIDITY IN PERCENT
WIND   - DIRECTION AND SPEED IN MILES PER HOUR (MPH)
VRB    - VARIABLE WIND DIRECTION
PRES   - MEAN SEA LEVEL PRESSURE IN INCHES OF MERCURY
         F - FALLING PRESSURE   R - RISING PRESSURE
         S - STEADY PRESSURE
VSB    - VISIBILITY IN MILES
HX     - HEAT INDEX IN FAHRENHEIT
WCI    - WIND CHILL INDEX IN FAHRENHEIT
TC     - TEMPERATURE IN CELSIUS WHICH IS ALSO KNOWN AS
         TEMPERATURE IN CENTIGRADE
AFB    - AIR FORCE BASE
         LUKE AFB IS LUKE AIR FORCE BASE
         DAVIS-MONTHAN IS DAVIS-MONTHAN AIR FORCE BASE
NAS    - NAVAL AIR STATION
         EL CENTRO NAS IS EL CENTRO NAVAL AIR STATION
N/A    - NOT AVAILABLE




USA.gov is the U.S. government's official web portal to all federal, state and local government web resources and services.